map of OGL home
OGL - Airport
Location
City:  Ogle, Demerara-Mahaica, Guyana
Near (Alt.):Georgetown
Name:Eugene F. Correira International Airport
Old (Alt.):Ogle International Airport
ICAO:SYEC
IATA:OGL

Details
Type:Airport (Aerodrome, Airfield)
Use:Public/Civil, International (customs port of entry)
Latitude:648'21"N (6.805912)
Longitude:5806'27"W (-58.107604)
Elevation:7 ft (2 m)
Variation:16.49W (WMM2015v2 magnetic declination)
-0.06 annual change
Runways:1
Longest:4201 × 100 ft (1280 × 30.5 m), paved

Time
Time Zone:UTC-4
Local Time:

Weather
METAR:SYEC 041400Z 06014KT 9999 BKN017 BKN080 27/24 Q1014 NOSIG
TAF:SYEC 040500Z 0406/0506 02006KT 5000 SHRA RA BKN012 BKN037
BECMG 0411/0413 06012KT 9999 BKN018 BKN040
BECMG 0422/0500 05006KT 9999 SCT015

Related Locations
Nearby:
Farthest:KSR: 12337 mi / 19854 km
Selayar Islands [H. Aroeppala Airport], SN, ID

Find:

   beyond  
but within

Other Information
Maps:
NOTAMs:
Links:
Sources:

  
  • flag of Guyana
  

Sectional Chart

Flight Planning
at skyvector.com

Satellite Image

Google Maps Satellite view

 

Copyright © 2004-2019 Karl L. Swartz. All rights reserved.
The Great Circle Mapper name and logo are trademarks of the Great Circle Mapper.
All other trademarks mentioned herein belong to their respective owners.
Please see credits for attibutions and further copyright information.

  Follow gcmap on Facebook Follow gcmap on Twitter GCmap on LinkedIn

hCard Microformat

Geo Microformat